| time (UTC) | temp F | wind direction | speed MPH | gust MPH | rain 1hr in | rain 24hr in | rain mn in | humidity % | barometer mb |
| 20260510164050 | 79 | 121 | 0.0 | 7.0 | 0.00 | 0.80 | 0.00 | 79 | 1015.7 |
| 20260510163550 | 80 | 107 | 3.0 | 8.0 | 0.00 | 0.80 | 0.00 | 80 | 1015.7 |
| 20260510163056 | 80 | 125 | 3.0 | 8.0 | 0.00 | 0.80 | 0.00 | 83 | 1015.6 |
| 20260510162548 | 79 | 44 | 1.0 | 7.0 | 0.00 | 0.80 | 0.00 | 81 | 1015.6 |
| 20260510162046 | 78 | 98 | 2.0 | 10.0 | 0.00 | 0.80 | 0.00 | 83 | 1015.5 |
| 20260510161545 | 78 | 55 | 3.0 | 10.0 | 0.00 | 0.80 | 0.00 | 83 | 1015.6 |
| 20260510161045 | 78 | 66 | 3.0 | 8.0 | 0.00 | 0.80 | 0.00 | 84 | 1015.8 |
| 20260510160545 | 77 | 82 | 2.0 | 9.0 | 0.00 | 0.80 | 0.00 | 83 | 1015.8 |
| 20260510160044 | 78 | 94 | 2.0 | 9.0 | 0.00 | 0.94 | 0.00 | 83 | 1016.0 |
| 20260510155542 | 78 | 80 | 2.0 | 5.0 | 0.00 | 0.94 | 0.00 | 83 | 1016.1 |
| 20260510155042 | 78 | 90 | 1.0 | 6.0 | 0.00 | 0.94 | 0.00 | 85 | 1016.0 |
| 20260510154542 | 77 | 127 | 2.0 | 6.0 | 0.00 | 0.94 | 0.00 | 86 | 1016.0 |
| 20260510154040 | 76 | 130 | 1.0 | 5.0 | 0.00 | 0.94 | 0.00 | 86 | 1016.0 |
| 20260510153538 | 76 | 51 | 2.0 | 7.0 | 0.00 | 0.94 | 0.00 | 86 | 1016.1 |
| 20260510153041 | 76 | 73 | 3.0 | 8.0 | 0.00 | 0.94 | 0.00 | 87 | 1016.0 |
| 20260510152537 | 75 | 55 | 3.0 | 8.0 | 0.00 | 0.94 | 0.00 | 85 | 1016.0 |
| 20260510152036 | 76 | 62 | 4.0 | 7.0 | 0.00 | 0.94 | 0.00 | 86 | 1016.3 |
| 20260510151537 | 76 | 57 | 4.0 | 7.0 | 0.00 | 0.94 | 0.00 | 86 | 1016.1 |
| 20260510151034 | 76 | 53 | 2.0 | 6.0 | 0.00 | 0.94 | 0.00 | 87 | 1016.0 |
| 20260510150533 | 76 | 131 | 2.0 | 7.0 | 0.00 | 0.94 | 0.00 | 87 | 1016.0 |
| 20260510150033 | 74 | 53 | 3.0 | 7.0 | 0.00 | 1.13 | 0.00 | 89 | 1016.1 |
| 20260510145531 | 74 | 57 | 3.0 | 8.0 | 0.00 | 1.13 | 0.00 | 88 | 1016.0 |
| 20260510145029 | 74 | 37 | 3.0 | 6.0 | 0.00 | 1.13 | 0.00 | 88 | 1016.2 |
| 20260510144529 | 74 | 78 | 3.0 | 7.0 | 0.00 | 1.13 | 0.00 | 89 | 1016.2 |
| 20260510144030 | 73 | 55 | 3.0 | 9.0 | 0.00 | 1.13 | 0.00 | 89 | 1016.1 |
| 20260510143528 | 73 | 53 | 4.0 | 9.0 | 0.00 | 1.13 | 0.00 | 88 | 1016.3 |
| 20260510143027 | 73 | 68 | 2.0 | 6.0 | 0.00 | 1.13 | 0.00 | 90 | 1016.3 |
| 20260510142525 | 72 | 56 | 2.0 | 6.0 | 0.00 | 1.13 | 0.00 | 91 | 1016.3 |
| 20260510142024 | 72 | 38 | 2.0 | 8.0 | 0.00 | 1.13 | 0.00 | 92 | 1016.2 |
| 20260510141523 | 71 | 44 | 4.0 | 8.0 | 0.00 | 1.13 | 0.00 | 92 | 1016.1 |
| 20260510141024 | 71 | 43 | 2.0 | 7.0 | 0.00 | 1.13 | 0.00 | 93 | 1016.0 |
| 20260510140520 | 71 | 112 | 2.0 | 9.0 | 0.00 | 1.13 | 0.00 | 93 | 1016.1 |
| 20260510140023 | 71 | 49 | 4.0 | 9.0 | 0.00 | 1.25 | 0.00 | 94 | 1016.1 |
| 20260510135520 | 70 | 79 | 3.0 | 10.0 | 0.00 | 1.25 | 0.00 | 95 | 1016.2 |
| 20260510135018 | 70 | 66 | 3.0 | 10.0 | 0.00 | 1.25 | 0.00 | 95 | 1016.0 |
| 20260510134516 | 70 | 69 | 3.0 | 8.0 | 0.00 | 1.25 | 0.00 | 95 | 1015.8 |
| 20260510134019 | 70 | 57 | 2.0 | 6.0 | 0.00 | 1.25 | 0.00 | 95 | 1015.8 |
| 20260510133514 | 69 | 31 | 3.0 | 6.0 | 0.00 | 1.25 | 0.00 | 95 | 1015.8 |
| 20260510133014 | 69 | 75 | 2.0 | 6.0 | 0.00 | 1.25 | 0.00 | 95 | 1015.9 |
| 20260510132513 | 69 | 71 | 3.0 | 6.0 | 0.00 | 1.25 | 0.00 | 95 | 1015.8 |
| 20260510132013 | 69 | 74 | 2.0 | 6.0 | 0.00 | 1.25 | 0.00 | 95 | 1015.8 |
| 20260510131511 | 69 | 31 | 2.0 | 6.0 | 0.00 | 1.25 | 0.00 | 95 | 1015.7 |
| 20260510131011 | 69 | 57 | 2.0 | 6.0 | 0.00 | 1.25 | 0.00 | 95 | 1015.4 |
| 20260510130511 | 69 | 38 | 3.0 | 9.0 | 0.00 | 1.25 | 0.00 | 95 | 1015.3 |
| 20260510130008 | 69 | 52 | 3.0 | 9.0 | 0.00 | 1.26 | 0.00 | 95 | 1015.3 |
| 20260510125507 | 69 | 49 | 2.0 | 7.0 | 0.00 | 1.26 | 0.00 | 95 | 1015.2 |
| 20260510125009 | 68 | 44 | 2.0 | 7.0 | 0.00 | 1.26 | 0.00 | 95 | 1015.1 |
| 20260510124505 | 68 | 49 | 1.0 | 4.0 | 0.00 | 1.26 | 0.00 | 95 | 1015.0 |
| 20260510124004 | 68 | 34 | 2.0 | 4.0 | 0.00 | 1.26 | 0.00 | 95 | 1014.8 |
| 20260510123503 | 67 | 32 | 1.0 | 4.0 | 0.00 | 1.26 | 0.00 | 95 | 1014.8 |
| 20260510123003 | 67 | 57 | 1.0 | 3.0 | 0.00 | 1.26 | 0.00 | 95 | 1014.8 |
| 20260510122502 | 67 | 27 | 1.0 | 3.0 | 0.00 | 1.26 | 0.00 | 94 | 1014.8 |
| 20260510122100 | 67 | 23 | 1.0 | 3.0 | 0.00 | 1.26 | 0.00 | 95 | 1014.6 |
| 20260510121559 | 66 | 59 | 0.0 | 2.0 | 0.00 | 1.26 | 0.00 | 94 | 1014.5 |
| 20260510121101 | 66 | 59 | 0.0 | 2.0 | 0.00 | 1.26 | 0.00 | 94 | 1014.4 |
| 20260510120558 | 66 | 64 | 1.0 | 2.0 | 0.00 | 1.26 | 0.00 | 95 | 1014.4 |
| 20260510120057 | 65 | 40 | 0.0 | 3.0 | 0.00 | 1.26 | 0.00 | 94 | 1014.4 |
| 20260510115555 | 65 | 61 | 1.0 | 3.0 | 0.00 | 1.26 | 0.00 | 94 | 1014.3 |
| 20260510115054 | 64 | 59 | 1.0 | 3.0 | 0.00 | 1.26 | 0.00 | 94 | 1014.2 |
| 20260510114613 | 64 | 66 | 1.0 | 2.0 | 0.00 | 1.26 | 0.00 | 94 | 1014.1 |
| 20260510114053 | 64 | 50 | 0.0 | 1.0 | 0.00 | 1.26 | 0.00 | 94 | 1014.0 |
| 20260510113551 | 64 | 50 | 0.0 | 1.0 | 0.00 | 1.26 | 0.00 | 94 | 1013.9 |
| 20260510113057 | 64 | 50 | 0.0 | 0.0 | 0.00 | 1.26 | 0.00 | 94 | 1013.8 |
| 20260510112549 | 64 | 50 | 0.0 | 1.0 | 0.00 | 1.26 | 0.00 | 94 | 1013.7 |
| 20260510112049 | 64 | 50 | 0.0 | 1.0 | 0.00 | 1.26 | 0.00 | 94 | 1013.5 |
| 20260510111547 | 64 | 50 | 0.0 | 0.0 | 0.00 | 1.26 | 0.00 | 94 | 1013.3 |
| 20260510111046 | 64 | 50 | 0.0 | 0.0 | 0.00 | 1.26 | 0.00 | 94 | 1013.2 |
| 20260510110545 | 64 | 50 | 0.0 | 0.0 | 0.00 | 1.26 | 0.00 | 94 | 1013.1 |
| 20260510110055 | 64 | 50 | 0.0 | 0.0 | 0.00 | 1.26 | 0.00 | 94 | 1013.1 |
| 20260510105544 | 64 | 50 | 0.0 | 0.0 | 0.00 | 1.26 | 0.00 | 94 | 1012.9 |
| 20260510105043 | 64 | 50 | 0.0 | 0.0 | 0.00 | 1.26 | 0.00 | 94 | 1012.8 |
| 20260510104546 | 64 | 50 | 0.0 | 0.0 | 0.00 | 1.26 | 0.00 | 94 | 1012.8 |
| 20260510104043 | 64 | 50 | 0.0 | 0.0 | 0.00 | 1.26 | 0.00 | 94 | 1012.7 |
| 20260510103543 | 64 | 50 | 0.0 | 0.0 | 0.00 | 1.26 | 0.00 | 94 | 1012.8 |
| 20260510103049 | 65 | 50 | 0.0 | 0.0 | 0.00 | 1.26 | 0.00 | 94 | 1012.6 |
| 20260510102540 | 65 | 50 | 0.0 | 0.0 | 0.00 | 1.26 | 0.00 | 94 | 1012.5 |
| 20260510102040 | 65 | 50 | 0.0 | 0.0 | 0.00 | 1.26 | 0.00 | 94 | 1012.5 |
| 20260510101549 | 65 | 50 | 0.0 | 0.0 | 0.00 | 1.26 | 0.00 | 94 | 1012.4 |
| 20260510101039 | 65 | 50 | 0.0 | 0.0 | 0.00 | 1.26 | 0.00 | 94 | 1012.5 |
| 20260510100539 | 65 | 50 | 0.0 | 1.0 | 0.00 | 1.26 | 0.00 | 94 | 1012.4 |
| 20260510100048 | 65 | 50 | 0.0 | 1.0 | 0.00 | 1.26 | 0.00 | 94 | 1012.4 |
| 20260510095538 | 65 | 50 | 0.0 | 1.0 | 0.00 | 1.26 | 0.00 | 94 | 1012.5 |
| 20260510095040 | 65 | 50 | 0.0 | 1.0 | 0.00 | 1.26 | 0.00 | 94 | 1012.5 |
| 20260510094544 | 65 | 50 | 0.0 | 1.0 | 0.00 | 1.26 | 0.00 | 94 | 1012.6 |
| 20260510094037 | 65 | 50 | 0.0 | 0.0 | 0.00 | 1.26 | 0.00 | 94 | 1012.6 |
| 20260510093537 | 65 | 50 | 0.0 | 1.0 | 0.00 | 1.26 | 0.00 | 94 | 1012.7 |
| 20260510093039 | 65 | 50 | 0.0 | 1.0 | 0.00 | 1.26 | 0.00 | 94 | 1012.6 |
| 20260510092536 | 65 | 50 | 0.0 | 1.0 | 0.00 | 1.26 | 0.00 | 94 | 1012.5 |
| 20260510092035 | 65 | 50 | 0.0 | 1.0 | 0.00 | 1.26 | 0.00 | 94 | 1012.5 |
| 20260510091535 | 65 | 50 | 0.0 | 1.0 | 0.00 | 1.26 | 0.00 | 94 | 1012.5 |
| 20260510091036 | 65 | 50 | 0.0 | 1.0 | 0.00 | 1.26 | 0.00 | 94 | 1012.5 |
| 20260510090535 | 65 | 50 | 0.0 | 2.0 | 0.00 | 1.26 | 0.00 | 94 | 1012.5 |
| 20260510090034 | 65 | 50 | 0.0 | 2.0 | 0.00 | 1.26 | 0.00 | 94 | 1012.4 |
| 20260510085533 | 65 | 30 | 0.0 | 2.0 | 0.00 | 1.26 | 0.00 | 94 | 1012.5 |
| 20260510085033 | 65 | 30 | 0.0 | 1.0 | 0.00 | 1.26 | 0.00 | 94 | 1012.4 |
| 20260510084535 | 65 | 30 | 0.0 | 1.0 | 0.00 | 1.26 | 0.00 | 94 | 1012.5 |
| 20260510084032 | 65 | 30 | 0.0 | 1.0 | 0.00 | 1.26 | 0.00 | 94 | 1012.5 |
| 20260510083532 | 65 | 30 | 0.0 | 2.0 | 0.00 | 1.26 | 0.00 | 94 | 1012.6 |
| 20260510083031 | 66 | 30 | 0.0 | 2.0 | 0.00 | 1.26 | 0.00 | 94 | 1012.4 |
| 20260510082530 | 65 | 35 | 0.0 | 2.0 | 0.00 | 1.26 | 0.00 | 94 | 1012.4 |
| 20260510082030 | 66 | 41 | 0.0 | 2.0 | 0.00 | 1.26 | 0.00 | 94 | 1012.5 |
| 20260510081631 | 65 | 11 | 1.0 | 2.0 | 0.00 | 1.26 | 0.00 | 94 | 1012.4 |
| 20260510081029 | 65 | 355 | 0.0 | 2.0 | 0.00 | 1.26 | 0.00 | 94 | 1012.5 |
| 20260510080528 | 65 | 355 | 0.0 | 2.0 | 0.00 | 1.26 | 0.00 | 94 | 1012.2 |
| 20260510080047 | 66 | 355 | 0.0 | 2.0 | 0.00 | 1.26 | 0.00 | 94 | 1012.2 |
| 20260510075528 | 66 | 355 | 0.0 | 2.0 | 0.00 | 1.26 | 0.00 | 94 | 1012.2 |
| 20260510075027 | 66 | 48 | 0.0 | 0.0 | 0.00 | 1.26 | 0.00 | 94 | 1012.0 |
| 20260510074527 | 66 | 47 | 0.0 | 0.0 | 0.00 | 1.26 | 0.00 | 94 | 1011.9 |
| 20260510074029 | 66 | 48 | 0.0 | 0.0 | 0.00 | 1.26 | 0.00 | 94 | 1011.9 |
| 20260510073525 | 66 | 47 | 0.0 | 0.0 | 0.00 | 1.26 | 0.00 | 94 | 1011.8 |
| 20260510073037 | 66 | 48 | 0.0 | 0.0 | 0.00 | 1.26 | 0.00 | 94 | 1011.8 |
| 20260510072525 | 66 | 48 | 0.0 | 1.0 | 0.00 | 1.26 | 0.00 | 94 | 1011.8 |
| 20260510072025 | 66 | 47 | 0.0 | 2.0 | 0.00 | 1.26 | 0.00 | 94 | 1011.7 |
| 20260510071524 | 66 | 48 | 0.0 | 2.0 | 0.00 | 1.26 | 0.00 | 94 | 1011.8 |
| 20260510071023 | 66 | 47 | 0.0 | 1.0 | 0.00 | 1.26 | 0.00 | 94 | 1011.8 |
| 20260510070523 | 66 | 48 | 0.0 | 1.0 | 0.00 | 1.26 | 0.00 | 94 | 1011.7 |
| 20260510070025 | 66 | 48 | 0.0 | 2.0 | 0.00 | 1.26 | 0.00 | 94 | 1011.7 |
| 20260510065522 | 66 | 48 | 0.0 | 2.0 | 0.00 | 1.26 | 0.00 | 94 | 1011.8 |
| 20260510065021 | 67 | 9 | 1.0 | 2.0 | 0.00 | 1.26 | 0.00 | 94 | 1011.8 |
| 20260510064520 | 67 | 70 | 0.0 | 2.0 | 0.00 | 1.26 | 0.00 | 94 | 1011.7 |
| 20260510064021 | 67 | 50 | 0.0 | 2.0 | 0.00 | 1.26 | 0.00 | 94 | 1011.8 |
| 20260510063521 | 67 | 50 | 0.0 | 3.0 | 0.00 | 1.26 | 0.00 | 94 | 1011.7 |
| 20260510063020 | 67 | 49 | 1.0 | 3.0 | 0.00 | 1.26 | 0.00 | 94 | 1011.9 |
| 20260510062519 | 67 | 34 | 0.0 | 3.0 | 0.00 | 1.26 | 0.00 | 94 | 1011.9 |
| 20260510062020 | 67 | 34 | 0.0 | 4.0 | 0.00 | 1.26 | 0.00 | 94 | 1011.9 |
| 20260510061519 | 67 | 12 | 2.0 | 6.0 | 0.00 | 1.26 | 0.00 | 94 | 1012.1 |
| 20260510061018 | 67 | 355 | 2.0 | 6.0 | 0.00 | 1.26 | 0.00 | 94 | 1012.2 |
| 20260510060517 | 67 | 5 | 2.0 | 5.0 | 0.00 | 1.26 | 0.00 | 94 | 1012.2 |
| 20260510060032 | 67 | 355 | 1.0 | 10.0 | 0.00 | 1.26 | 0.00 | 94 | 1012.1 |
| 20260510055521 | 67 | 321 | 3.0 | 11.0 | 0.00 | 1.26 | 0.00 | 94 | 1012.2 |
| 20260510055015 | 67 | 355 | 5.0 | 11.0 | 0.00 | 1.26 | 0.00 | 94 | 1012.1 |
| 20260510054518 | 67 | 350 | 3.0 | 5.0 | 0.00 | 1.26 | 0.00 | 94 | 1011.9 |
| 20260510054014 | 67 | 15 | 2.0 | 4.0 | 0.00 | 1.26 | 0.00 | 94 | 1011.7 |
| 20260510053511 | 68 | 132 | 1.0 | 6.0 | 0.00 | 1.26 | 0.00 | 94 | 1011.5 |
| 20260510053011 | 68 | 127 | 2.0 | 7.0 | 0.00 | 1.26 | 0.00 | 94 | 1011.4 |
| 20260510052511 | 68 | 145 | 2.0 | 8.0 | 0.00 | 1.26 | 0.00 | 94 | 1011.3 |
| 20260510052010 | 68 | 131 | 3.0 | 9.0 | 0.00 | 1.26 | 0.00 | 94 | 1011.1 |
| 20260510051510 | 68 | 198 | 4.0 | 10.0 | 0.00 | 1.26 | 0.00 | 94 | 1011.0 |
| 20260510051008 | 68 | 146 | 5.0 | 10.0 | 0.00 | 1.26 | 0.00 | 94 | 1011.2 |
| 20260510050509 | 68 | 198 | 4.0 | 8.0 | 0.00 | 1.26 | 0.00 | 94 | 1011.3 |
| 20260510050009 | 68 | 202 | 3.0 | 8.0 | 0.00 | 1.26 | 1.26 | 94 | 1011.4 |
| 20260510045508 | 68 | 155 | 3.0 | 8.0 | 0.00 | 1.26 | 1.26 | 94 | 1011.3 |
| 20260510045007 | 68 | 157 | 2.0 | 11.0 | 0.00 | 1.26 | 1.26 | 94 | 1011.5 |
| 20260510044506 | 68 | 140 | 3.0 | 12.0 | 0.00 | 1.26 | 1.26 | 94 | 1011.6 |
| 20260510044009 | 68 | 148 | 2.0 | 7.0 | 0.00 | 1.26 | 1.26 | 94 | 1011.8 |
| 20260510043511 | 68 | 150 | 3.0 | 7.0 | 0.00 | 1.26 | 1.26 | 94 | 1011.7 |
| 20260510043007 | 68 | 171 | 3.0 | 6.0 | 0.00 | 1.26 | 1.26 | 94 | 1011.8 |
| 20260510042506 | 68 | 193 | 3.0 | 8.0 | 0.00 | 1.26 | 1.26 | 94 | 1011.8 |
| 20260510042006 | 68 | 177 | 2.0 | 6.0 | 0.00 | 1.26 | 1.26 | 94 | 1012.0 |
| 20260510041505 | 68 | 196 | 2.0 | 6.0 | 0.00 | 1.26 | 1.26 | 94 | 1011.9 |
| 20260510041007 | 68 | 196 | 2.0 | 9.0 | 0.00 | 1.26 | 1.26 | 94 | 1012.0 |
| 20260510040505 | 68 | 163 | 2.0 | 9.0 | 0.00 | 1.26 | 1.26 | 94 | 1012.2 |
| 20260510040010 | 68 | 174 | 3.0 | 7.0 | 0.00 | 1.26 | 1.26 | 94 | 1012.4 |
| 20260510035506 | 68 | 180 | 2.0 | 7.0 | 0.00 | 1.26 | 1.26 | 94 | 1012.4 |
| 20260510035004 | 68 | 173 | 3.0 | 7.0 | 0.00 | 1.26 | 1.26 | 94 | 1012.5 |
| 20260510034504 | 67 | 150 | 3.0 | 7.0 | 0.00 | 1.26 | 1.26 | 94 | 1012.7 |
| 20260510034008 | 67 | 187 | 2.0 | 4.0 | 0.00 | 1.26 | 1.26 | 94 | 1012.9 |
| 20260510033507 | 67 | 187 | 1.0 | 4.0 | 0.00 | 1.26 | 1.26 | 94 | 1012.9 |
| 20260510033004 | 67 | 155 | 1.0 | 3.0 | 0.00 | 1.26 | 1.26 | 94 | 1012.9 |
| 20260510032503 | 67 | 178 | 1.0 | 3.0 | 0.00 | 1.26 | 1.26 | 94 | 1013.0 |
| 20260510032003 | 67 | 194 | 1.0 | 3.0 | 0.00 | 1.26 | 1.26 | 93 | 1013.2 |
| 20260510031507 | 67 | 196 | 2.0 | 3.0 | 0.00 | 1.26 | 1.26 | 93 | 1013.2 |
| 20260510031004 | 67 | 5 | 0.0 | 0.0 | 0.00 | 1.26 | 1.26 | 93 | 1013.3 |
| 20260510030503 | 67 | 5 | 0.0 | 0.0 | 0.00 | 1.26 | 1.26 | 93 | 1013.4 |
| 20260510030004 | 67 | 5 | 0.0 | 0.0 | 0.00 | 1.26 | 1.26 | 94 | 1013.4 |
| 20260510025502 | 68 | 5 | 0.0 | 1.0 | 0.00 | 1.26 | 1.26 | 94 | 1013.4 |
| 20260510025003 | 68 | 5 | 0.0 | 1.0 | 0.00 | 1.26 | 1.26 | 94 | 1013.5 |
| 20260510024504 | 68 | 5 | 0.0 | 1.0 | 0.00 | 1.26 | 1.26 | 94 | 1013.3 |
| 20260510024003 | 68 | 5 | 0.0 | 1.0 | 0.00 | 1.26 | 1.26 | 94 | 1013.3 |
| 20260510023502 | 68 | 5 | 0.0 | 1.0 | 0.00 | 1.26 | 1.26 | 94 | 1013.4 |
| 20260510023002 | 68 | 5 | 0.0 | 1.0 | 0.00 | 1.26 | 1.26 | 94 | 1013.2 |
| 20260510022502 | 68 | 5 | 0.0 | 1.0 | 0.00 | 1.26 | 1.26 | 94 | 1013.0 |
| 20260510022002 | 68 | 5 | 0.0 | 2.0 | 0.00 | 1.26 | 1.26 | 94 | 1012.9 |
| 20260510021507 | 68 | 5 | 1.0 | 2.0 | 0.00 | 1.26 | 1.26 | 94 | 1012.9 |
| 20260510021002 | 68 | 5 | 0.0 | 2.0 | 0.00 | 1.26 | 1.26 | 94 | 1012.8 |
| 20260510020502 | 68 | 5 | 0.0 | 2.0 | 0.00 | 1.26 | 1.26 | 93 | 1012.7 |
| 20260510020002 | 68 | 38 | 0.0 | 1.0 | 0.00 | 1.26 | 1.26 | 93 | 1012.8 |
| 20260510015500 | 68 | 38 | 0.0 | 0.0 | 0.00 | 1.26 | 1.26 | 93 | 1012.6 |
| 20260510015001 | 68 | 37 | 0.0 | 0.0 | 0.00 | 1.26 | 1.26 | 93 | 1012.7 |
| 20260510014601 | 68 | 37 | 0.0 | 0.0 | 0.00 | 1.26 | 1.26 | 93 | 1012.7 |
| 20260510014001 | 68 | 37 | 0.0 | 0.0 | 0.00 | 1.26 | 1.26 | 93 | 1012.7 |
| 20260510013601 | 68 | 37 | 0.0 | 2.0 | 0.00 | 1.26 | 1.26 | 93 | 1012.5 |
| 20260510013119 | 68 | 37 | 0.0 | 2.0 | 0.00 | 1.26 | 1.26 | 93 | 1012.4 |
| 20260510012600 | 68 | 37 | 1.0 | 2.0 | 0.00 | 1.26 | 1.26 | 93 | 1012.3 |
| 20260510012100 | 68 | 141 | 0.0 | 2.0 | 0.00 | 1.26 | 1.26 | 93 | 1012.3 |
| 20260510011600 | 68 | 141 | 0.0 | 3.0 | 0.00 | 1.26 | 1.26 | 94 | 1012.2 |
| 20260510011100 | 68 | 141 | 0.0 | 5.0 | 0.00 | 1.26 | 1.26 | 94 | 1012.1 |
| 20260510010600 | 68 | 128 | 0.0 | 3.0 | 0.00 | 1.26 | 1.26 | 94 | 1012.2 |
| 20260510005559 | 68 | 115 | 1.0 | 4.0 | 0.00 | 1.26 | 1.26 | 94 | 1012.0 |
| 20260510005103 | 68 | 100 | 2.0 | 4.0 | 0.00 | 1.26 | 1.26 | 94 | 1011.9 |
| 20260510004601 | 68 | 122 | 0.0 | 8.0 | 0.00 | 1.26 | 1.26 | 94 | 1011.9 |
| 20260510004058 | 68 | 142 | 2.0 | 8.0 | 0.00 | 1.26 | 1.26 | 94 | 1011.8 |
| 20260510003558 | 68 | 130 | 3.0 | 8.0 | 0.00 | 1.26 | 1.26 | 93 | 1011.6 |
| 20260510003105 | 68 | 118 | 4.0 | 8.0 | 0.00 | 1.26 | 1.26 | 93 | 1011.7 |
| 20260510002559 | 68 | 138 | 3.0 | 6.0 | 0.00 | 1.26 | 1.26 | 93 | 1011.6 |
| 20260510002058 | 68 | 135 | 2.0 | 4.0 | 0.00 | 1.26 | 1.26 | 93 | 1011.8 |
| 20260510001608 | 68 | 136 | 0.0 | 4.0 | 0.00 | 1.26 | 1.26 | 93 | 1011.7 |
| 20260510001058 | 68 | 96 | 2.0 | 5.0 | 0.00 | 1.26 | 1.26 | 93 | 1011.8 |
| 20260510000559 | 68 | 128 | 1.0 | 5.0 | 0.00 | 1.26 | 1.26 | 93 | 1011.8 |
| 20260510000057 | 68 | 119 | 1.0 | 6.0 | 0.00 | 1.26 | 1.26 | 93 | 1011.7 |
| 20260509235556 | 68 | 111 | 1.0 | 4.0 | 0.00 | 1.26 | 1.26 | 93 | 1011.6 |
| 20260509235057 | 68 | 130 | 1.0 | 7.0 | 0.00 | 1.26 | 1.26 | 93 | 1011.7 |
| 20260509234557 | 68 | 123 | 3.0 | 7.0 | 0.00 | 1.26 | 1.26 | 93 | 1011.7 |
| 20260509234057 | 68 | 111 | 1.0 | 4.0 | 0.00 | 1.26 | 1.26 | 93 | 1011.8 |
| 20260509233556 | 68 | 122 | 2.0 | 4.0 | 0.00 | 1.26 | 1.26 | 93 | 1011.9 |
| 20260509233100 | 68 | 121 | 2.0 | 3.0 | 0.00 | 1.26 | 1.26 | 93 | 1011.8 |
| 20260509232556 | 69 | 126 | 1.0 | 3.0 | 0.00 | 1.26 | 1.26 | 93 | 1011.7 |
| 20260509232056 | 69 | 124 | 1.0 | 3.0 | 0.00 | 1.26 | 1.26 | 93 | 1011.7 |
| 20260509231601 | 68 | 125 | 1.0 | 3.0 | 0.01 | 1.26 | 1.26 | 93 | 1011.7 |
| 20260509231056 | 68 | 130 | 0.0 | 3.0 | 0.01 | 1.26 | 1.26 | 93 | 1011.8 |
| 20260509230555 | 68 | 130 | 2.0 | 3.0 | 0.01 | 1.26 | 1.26 | 93 | 1011.8 |
| 20260509230058 | 68 | 112 | 0.0 | 3.0 | 0.02 | 1.26 | 1.26 | 93 | 1011.8 |
| 20260509225555 | 68 | 34 | 0.0 | 3.0 | 0.02 | 1.26 | 1.26 | 93 | 1011.9 |
| 20260509225055 | 68 | 25 | 0.0 | 3.0 | 0.03 | 1.26 | 1.26 | 93 | 1011.7 |
| 20260509224556 | 68 | 340 | 1.0 | 3.0 | 0.03 | 1.26 | 1.26 | 93 | 1011.8 |
| 20260509224055 | 68 | 22 | 0.0 | 0.0 | 0.04 | 1.26 | 1.26 | 93 | 1011.8 |
| 20260509223555 | 68 | 53 | 0.0 | 0.0 | 0.04 | 1.26 | 1.26 | 93 | 1011.9 |
| 20260509223055 | 68 | 121 | 0.0 | 0.0 | 0.05 | 1.26 | 1.26 | 93 | 1011.9 |
| 20260509222553 | 68 | 113 | 0.0 | 2.0 | 0.06 | 1.26 | 1.26 | 93 | 1011.8 |
| 20260509222053 | 68 | 84 | 0.0 | 2.0 | 0.06 | 1.26 | 1.26 | 93 | 1011.7 |
| 20260509221554 | 68 | 55 | 1.0 | 2.0 | 0.06 | 1.25 | 1.25 | 93 | 1011.9 |
| 20260509221054 | 68 | 94 | 0.0 | 2.0 | 0.06 | 1.25 | 1.25 | 93 | 1011.7 |
| 20260509220553 | 68 | 97 | 0.0 | 3.0 | 0.07 | 1.25 | 1.25 | 94 | 1011.7 |
| 20260509220053 | 68 | 125 | 0.0 | 3.0 | 0.07 | 1.25 | 1.24 | 94 | 1011.6 |
| 20260509215552 | 68 | 62 | 0.0 | 3.0 | 0.07 | 1.25 | 1.24 | 94 | 1011.5 |
| 20260509215054 | 68 | 61 | 2.0 | 3.0 | 0.07 | 1.24 | 1.23 | 94 | 1011.3 |
| 20260509214552 | 68 | 360 | 0.0 | 2.0 | 0.08 | 1.24 | 1.23 | 94 | 1011.4 |
| 20260509214051 | 68 | 29 | 0.0 | 0.0 | 0.07 | 1.23 | 1.22 | 93 | 1011.4 |
| 20260509213551 | 68 | 76 | 0.0 | 1.0 | 0.07 | 1.22 | 1.21 | 93 | 1011.6 |
| 20260509213105 | 68 | 77 | 0.0 | 1.0 | 0.08 | 1.22 | 1.21 | 94 | 1011.7 |
| 20260509212552 | 68 | 78 | 0.0 | 2.0 | 0.07 | 1.21 | 1.20 | 93 | 1011.9 |
| 20260509212052 | 68 | 45 | 0.0 | 3.0 | 0.08 | 1.21 | 1.20 | 94 | 1012.0 |
| 20260509211559 | 68 | 51 | 1.0 | 3.0 | 0.08 | 1.20 | 1.19 | 94 | 1011.7 |
| 20260509211052 | 68 | 351 | 1.0 | 3.0 | 0.09 | 1.20 | 1.19 | 94 | 1011.7 |
| 20260509210551 | 68 | 11 | 0.0 | 2.0 | 0.09 | 1.19 | 1.18 | 94 | 1011.7 |
| 20260509210051 | 68 | 43 | 0.0 | 1.0 | 0.09 | 1.22 | 1.17 | 94 | 1011.7 |
| 20260509205552 | 68 | 43 | 0.0 | 2.0 | 0.10 | 1.22 | 1.17 | 94 | 1011.7 |
| 20260509205050 | 68 | 43 | 0.0 | 5.0 | 0.10 | 1.21 | 1.15 | 94 | 1011.5 |
| 20260509204549 | 68 | 56 | 0.0 | 5.0 | 0.10 | 1.20 | 1.14 | 94 | 1011.4 |
| 20260509204049 | 68 | 24 | 2.0 | 4.0 | 0.11 | 1.20 | 1.14 | 93 | 1011.2 |
| 20260509203549 | 68 | 88 | 1.0 | 4.0 | 0.11 | 1.19 | 1.13 | 94 | 1011.1 |
| 20260509203049 | 68 | 90 | 1.0 | 6.0 | 0.11 | 1.18 | 1.12 | 94 | 1011.0 |
| 20260509202549 | 68 | 128 | 1.0 | 8.0 | 0.11 | 1.17 | 1.12 | 94 | 1010.9 |
| 20260509202049 | 68 | 113 | 2.0 | 9.0 | 0.12 | 1.17 | 1.12 | 94 | 1010.8 |
| 20260509201549 | 68 | 101 | 4.0 | 9.0 | 0.12 | 1.15 | 1.11 | 93 | 1010.8 |
| 20260509201048 | 68 | 87 | 2.0 | 7.0 | 0.12 | 1.14 | 1.10 | 93 | 1011.0 |
| 20260509200549 | 68 | 55 | 2.0 | 5.0 | 0.12 | 1.13 | 1.09 | 93 | 1011.3 |
| 20260509200052 | 68 | 107 | 2.0 | 9.0 | 0.12 | 1.94 | 1.08 | 93 | 1011.6 |
| 20260509195548 | 68 | 84 | 2.0 | 9.0 | 0.12 | 1.93 | 1.07 | 94 | 1011.7 |
| 20260509195047 | 68 | 90 | 3.0 | 9.0 | 0.13 | 1.92 | 1.06 | 94 | 1011.7 |
| 20260509194555 | 68 | 59 | 2.0 | 9.0 | 0.13 | 1.91 | 1.05 | 94 | 1011.9 |
| 20260509194047 | 68 | 58 | 2.0 | 6.0 | 0.13 | 1.90 | 1.04 | 94 | 1011.9 |
| 20260509193547 | 68 | 75 | 2.0 | 6.0 | 0.14 | 1.89 | 1.03 | 94 | 1011.9 |
| 20260509193047 | 68 | 76 | 2.0 | 6.0 | 0.14 | 1.88 | 1.02 | 94 | 1012.2 |
| 20260509192546 | 67 | 43 | 2.0 | 4.0 | 0.14 | 1.87 | 1.01 | 94 | 1012.3 |
| 20260509192045 | 67 | 53 | 1.0 | 5.0 | 0.15 | 1.86 | 1.00 | 94 | 1012.6 |
| 20260509191554 | 67 | 130 | 2.0 | 5.0 | 0.15 | 1.85 | 0.99 | 94 | 1012.8 |
| 20260509191044 | 67 | 130 | 1.0 | 5.0 | 0.15 | 1.84 | 0.98 | 94 | 1012.8 |
| 20260509190549 | 67 | 54 | 1.0 | 7.0 | 0.16 | 1.83 | 0.97 | 94 | 1013.0 |
| 20260509190047 | 67 | 68 | 1.0 | 7.0 | 0.16 | 1.82 | 0.96 | 94 | 1012.8 |
| 20260509185543 | 67 | 120 | 2.0 | 5.0 | 0.16 | 1.80 | 0.94 | 94 | 1012.3 |
| 20260509185043 | 67 | 84 | 1.0 | 4.0 | 0.16 | 1.79 | 0.93 | 94 | 1012.3 |
| 20260509184542 | 67 | 129 | 2.0 | 7.0 | 0.17 | 1.78 | 0.92 | 94 | 1012.5 |
| 20260509184042 | 67 | 109 | 2.0 | 7.0 | 0.18 | 1.77 | 0.91 | 94 | 1012.7 |
| 20260509183542 | 67 | 165 | 3.0 | 7.0 | 0.17 | 1.75 | 0.89 | 94 | 1012.9 |
| 20260509183045 | 67 | 149 | 2.0 | 4.0 | 0.18 | 1.74 | 0.88 | 94 | 1012.9 |
| 20260509182542 | 67 | 98 | 1.0 | 4.0 | 0.18 | 1.73 | 0.87 | 94 | 1012.9 |
| 20260509182042 | 67 | 101 | 1.0 | 4.0 | 0.18 | 1.71 | 0.85 | 94 | 1012.8 |
| 20260509181542 | 67 | 103 | 2.0 | 9.0 | 0.18 | 1.70 | 0.84 | 94 | 1013.2 |
| 20260509181042 | 67 | 150 | 3.0 | 9.0 | 0.18 | 1.68 | 0.82 | 94 | 1012.9 |
| 20260509180542 | 67 | 140 | 2.0 | 7.0 | 0.19 | 1.67 | 0.81 | 94 | 1012.7 |
| 20260509180052 | 67 | 113 | 3.0 | 7.0 | 0.18 | 1.65 | 0.79 | 93 | 1012.4 |
| 20260509175544 | 67 | 113 | 2.0 | 8.0 | 0.19 | 1.64 | 0.78 | 93 | 1012.5 |
| 20260509175041 | 67 | 82 | 3.0 | 8.0 | 0.19 | 1.62 | 0.76 | 93 | 1012.4 |
| 20260509174542 | 67 | 92 | 2.0 | 4.0 | 0.19 | 1.61 | 0.75 | 94 | 1012.6 |
| 20260509174041 | 67 | 116 | 1.0 | 12.0 | 0.19 | 1.59 | 0.73 | 94 | 1013.0 |
| 20260509173540 | 67 | 90 | 4.0 | 12.0 | 0.19 | 1.58 | 0.72 | 94 | 1013.2 |
| 20260509173054 | 67 | 145 | 3.0 | 9.0 | 0.19 | 1.56 | 0.70 | 94 | 1012.6 |
| 20260509172540 | 67 | 119 | 3.0 | 9.0 | 0.19 | 1.55 | 0.69 | 94 | 1012.6 |
| 20260509172042 | 67 | 107 | 3.0 | 9.0 | 0.18 | 1.53 | 0.67 | 94 | 1012.4 |
| 20260509171542 | 67 | 111 | 3.0 | 9.0 | 0.17 | 1.51 | 0.65 | 94 | 1013.0 |
| 20260509171043 | 67 | 137 | 2.0 | 13.0 | 0.16 | 1.50 | 0.64 | 94 | 1012.9 |
| 20260509170539 | 67 | 78 | 4.0 | 13.0 | 0.15 | 1.48 | 0.62 | 94 | 1012.7 |
| 20260509170039 | 67 | 51 | 5.0 | 13.0 | 0.15 | 1.47 | 0.61 | 93 | 1012.4 |
| 20260509165539 | 67 | 57 | 3.0 | 9.0 | 0.14 | 1.45 | 0.59 | 94 | 1012.6 |
| 20260509165039 | 67 | 122 | 3.0 | 10.0 | 0.13 | 1.43 | 0.56 | 93 | 1012.4 |
| 20260509164539 | 67 | 99 | 4.0 | 11.0 | 0.12 | 1.42 | 0.56 | 93 | 1012.6 |